1489647600.01,26675,8.75,73122.3,-10.81,-30.11,-29.57,0,*62
1489647601.27,26676,8.75,73160.3,-10.81,-30.77,-30.05,0,*6E
1489647602.53,26677,8.75,73116.8,-10.81,-30.51,-29.73,0,*62
1489647603.77,26678,8.75,73132.3,-10.81,-30.39,-29.83,0,*6C
1489647605.03,26679,8.75,73134.0,-10.81,-30.39,-29.73,0,*62
1489647606.26,26680,8.75,73148.8,-10.81,-30.39,-29.67,0,*61
1489647607.53,26681,8.75,73146.3,-10.79,-30.67,-30.01,0,*64
1489647608.79,26682,8.75,73154.3,-10.83,-30.55,-29.83,0,*61
1489647610.06,26683,8.75,73100.0,-10.83,-31.05,-30.17,0,*61
1489647611.34,26684,8.75,73116.3,-10.83,-30.55,-29.73,0,*68
1489647612.6,26685,8.75,73124.5,-10.87,-30.39,-29.67,0,*62
1489647613.87,26686,8.75,73134.8,-10.87,-30.27,-29.51,0,*6B
1489647615.16,26687,8.75,73120.8,-10.87,-30.39,-29.73,0,*65
1489647616.42,26688,8.75,73126.0,-10.83,-30.33,-29.51,0,*64
1489647617.66,26689,8.75,73130.8,-10.83,-30.23,-29.45,0,*61
1489647618.92,26690,8.75,73136.3,-10.87,-30.39,-29.67,0,*66
1489647620.2,26691,8.75,73120.3,-10.87,-30.55,-29.73,0,*68
1489647621.48,26692,8.75,73132.5,-10.87,-30.39,-29.73,0,*61
1489647622.72,26693,8.69,73146.8,-10.83,-30.33,-29.61,0,*6D
1489647623.97,26694,8.75,73154.5,-10.87,-30.55,-29.79,0,*67
1489647625.27,26695,8.75,73144.8,-10.87,-30.73,-29.89,0,*6D
1489647626.53,26696,8.75,73114.3,-10.87,-30.73,-29.95,0,*63
1489647627.79,26697,8.75,73098.8,-10.83,-30.39,-29.67,0,*65
1489647629.05,26698,8.75,73112.3,-10.87,-30.39,-29.67,0,*6E
1489647630.31,26699,8.75,73118.8,-10.87,-30.39,-29.67,0,*6F
1489647631.58,26700,8.75,73130.5,-10.87,-30.39,-29.57,0,*6D
1489647632.84,26701,8.75,73138.8,-10.87,-30.23,-29.51,0,*61
1489647634.13,26702,8.75,73120.5,-10.83,-30.17,-29.39,0,*6F
1489647635.37,26703,8.75,73102.8,-10.83,-30.33,-29.61,0,*65
1489647636.61,26704,8.75,73098.0,-10.87,-30.27,-29.57,0,*66
1489647637.88,26705,8.75,73100.5,-10.87,-30.23,-29.51,0,*65
1489647639.14,26706,8.75,73104.0,-10.83,-30.17,-29.45,0,*60
1489647640.38,26707,8.75,73108.5,-10.87,-29.95,-29.23,0,*67
1489647641.66,26708,8.75,73098.5,-10.87,-30.27,-29.51,0,*6C
1489647642.9,26709,8.69,73078.0,-10.87,-30.27,-29.67,0,*68
1489647644.17,26710,8.75,73074.5,-10.87,-30.27,-29.51,0,*65
1489647645.44,26711,8.75,73076.0,-10.83,-30.23,-29.51,0,*64
1489647646.68,26712,8.75,73082.8,-10.83,-30.33,-29.45,0,*63
1489647647.97,26713,8.75,73096.0,-10.83,-30.05,-29.35,0,*60
1489647649.26,26714,8.75,73100.0,-10.83,-30.01,-29.35,0,*63
1489647650.55,26715,8.75,73114.0,-10.83,-29.89,-29.17,0,*6A
1489647651.82,26716,8.75,73114.5,-10.83,-29.83,-29.13,0,*67
1489647653.1,26717,8.75,73086.3,-10.87,-30.05,-29.39,0,*6C
1489647654.37,26718,8.75,73104.0,-10.83,-29.83,-29.17,0,*6D
1489647655.66,26719,8.75,73112.0,-10.87,-30.05,-29.35,0,*6E
1489647656.92,26720,8.75,73130.0,-10.81,-29.89,-29.29,0,*63
1489647658.18,26721,8.75,73126.5,-10.81,-29.73,-29.17,0,*6A
1489647659.43,26722,8.75,73140.0,-10.81,-29.83,-29.17,0,*66
1489647660.69,26723,8.75,73150.5,-10.81,-30.01,-29.17,0,*65
1489647661.95,26724,8.75,73140.3,-10.81,-30.01,-29.29,0,*6F
1489647663.21,26725,8.75,73138.3,-10.79,-29.95,-29.29,0,*6C
1489647664.45,26726,8.75,73138.5,-10.79,-29.83,-29.23,0,*62
1489647665.69,26727,8.75,73152.5,-10.79,-29.83,-29.07,0,*65
1489647666.93,26728,8.75,73150.5,-10.81,-29.83,-29.13,0,*68
1489647668.18,26729,8.75,73142.5,-10.79,-29.79,-29.13,0,*6B
1489647669.42,26730,8.75,73140.5,-10.79,-29.83,-29.07,0,*63
1489647670.69,26731,8.75,73146.5,-10.79,-29.79,-28.91,0,*69
1489647671.93,26732,8.75,73152.0,-10.79,-29.67,-28.97,0,*63
1489647673.19,26733,8.75,73154.5,-10.79,-29.83,-29.13,0,*65
1489647674.46,26734,8.75,73146.8,-10.79,-29.83,-29.13,0,*62
1489647675.72,26735,8.75,73150.8,-10.79,-29.95,-29.13,0,*64
1489647677.0,26736,8.75,73130.8,-10.79,-30.01,-29.29,0,*6B
1489647678.25,26737,8.75,73144.3,-10.77,-30.01,-29.39,0,*65
1489647679.51,26738,8.75,73140.0,-10.75,-30.05,-29.23,0,*67
1489647680.8,26739,8.75,73138.0,-10.75,-30.05,-29.35,0,*61
1489647682.1,26740,8.75,73122.0,-10.75,-29.89,-29.17,0,*63
1489647683.35,26741,8.69,73136.5,-10.75,-30.05,-29.23,0,*69
1489647684.58,26742,8.75,73146.0,-10.77,-30.11,-29.39,0,*66
1489647685.85,26743,8.75,73136.0,-10.75,-29.79,-29.17,0,*6F
1489647687.12,26744,8.75,73142.5,-10.75,-29.95,-29.35,0,*6A
1489647688.41,26745,8.75,73144.8,-10.75,-29.89,-29.17,0,*66
1489647689.71,26746,8.75,73148.8,-10.75,-30.05,-29.35,0,*69
1489647690.97,26747,8.75,73144.0,-10.75,-29.95,-29.17,0,*69
1489647692.23,26748,8.69,73148.8,-10.75,-30.05,-29.23,0,*60
1489647693.5,26749,8.75,73150.0,-10.75,-29.89,-29.23,0,*6D
1489647694.75,26750,8.75,73144.0,-10.75,-30.05,-29.23,0,*69
1489647696.03,26751,8.75,73140.0,-10.75,-29.95,-29.35,0,*6E
1489647697.27,26752,8.75,73138.8,-10.73,-29.79,-29.01,0,*6E
1489647698.48,26753,8.75,73130.8,-10.73,-29.79,-29.07,0,*69
1489647699.77,26754,8.75,73126.8,-10.71,-29.89,-29.17,0,*62
1489647701.02,26755,8.75,73112.0,-10.73,-29.95,-29.35,0,*6C
1489647702.3,26756,8.75,73134.8,-10.71,-29.73,-29.13,0,*61
1489647703.59,26757,8.75,73140.0,-10.71,-29.73,-29.17,0,*64
1489647704.83,26758,8.75,73152.8,-10.73,-29.67,-29.17,0,*6C
1489647706.12,26759,8.75,73156.8,-10.71,-29.89,-29.29,0,*62
1489647707.38,26760,8.75,73152.0,-10.73,-30.05,-29.39,0,*67
1489647708.66,26761,8.75,73140.3,-10.71,-30.01,-29.29,0,*61
1489647709.95,26762,8.75,73122.8,-10.71,-30.05,-29.35,0,*6B
1489647711.17,26763,8.75,73122.3,-10.73,-30.27,-29.57,0,*6C
1489647712.39,26764,8.75,73146.0,-10.73,-30.27,-29.57,0,*6B
1489647713.63,26765,8.69,73138.0,-10.71,-30.23,-29.45,0,*6F
1489647714.88,26766,8.75,73150.5,-10.73,-29.95,-29.35,0,*6C
1489647716.17,26767,8.75,73152.5,-10.71,-30.01,-29.35,0,*6A
1489647717.46,26768,8.75,73150.3,-10.71,-30.01,-29.35,0,*65
1489647718.7,26769,8.75,73136.0,-10.73,-30.11,-29.51,0,*65
1489647719.97,26770,8.69,73118.8,-10.73,-30.05,-29.51,0,*68
1489647721.24,26771,8.69,73122.5,-10.73,-30.01,-29.35,0,*6F
1489647722.53,26772,8.75,73136.5,-10.71,-29.89,-29.29,0,*6B
1489647723.81,26773,8.75,73138.0,-10.71,-30.01,-29.35,0,*6F
1489647725.1,26774,8.75,73152.3,-10.71,-30.01,-29.35,0,*68
1489647726.39,26775,8.69,73148.8,-10.71,-30.01,-29.35,0,*69
1489647727.68,26776,8.75,73158.0,-10.71,-30.01,-29.35,0,*6A
1489647728.95,26777,8.75,73148.8,-10.71,-30.17,-29.45,0,*6B
1489647730.21,26778,8.75,73148.5,-10.71,-30.05,-29.45,0,*67
1489647731.47,26779,8.75,73146.3,-10.71,-30.17,-29.45,0,*65
1489647732.77,26780,8.75,73156.0,-10.71,-30.17,-29.51,0,*66
1489647734.06,26781,8.69,73156.3,-10.71,-30.17,-29.51,0,*67
1489647735.3,26782,8.75,73158.0,-10.71,-30.23,-29.57,0,*65
1489647736.53,26783,8.75,73160.0,-10.71,-30.23,-29.57,0,*64
1489647737.77,26784,8.75,73156.0,-10.71,-30.33,-29.57,0,*62
1489647739.01,26785,8.75,73154.0,-10.71,-30.33,-29.57,0,*63
1489647740.27,26786,8.69,73154.3,-10.71,-30.23,-29.51,0,*67
1489647741.51,26787,8.75,73160.0,-10.71,-30.23,-29.57,0,*60
1489647742.74,26788,8.75,73152.5,-10.71,-30.23,-29.57,0,*6F
1489647743.97,26789,8.75,73160.8,-10.73,-30.27,-29.57,0,*68
1489647745.23,26790,8.75,73164.3,-10.71,-30.23,-29.51,0,*60
1489647746.52,26791,8.75,73168.8,-10.71,-30.17,-29.51,0,*66
1489647747.81,26792,8.75,73174.5,-10.71,-30.01,-29.35,0,*60
1489647749.08,26793,8.75,73172.0,-10.69,-30.17,-29.51,0,*6D
1489647750.34,26794,8.69,73164.8,-10.69,-30.51,-29.73,0,*68
1489647751.63,26795,8.75,73152.3,-10.71,-30.77,-30.05,0,*6D
1489647752.92,26796,8.75,73152.8,-10.71,-30.73,-30.01,0,*6E
1489647754.21,26797,8.75,73164.8,-10.71,-30.73,-30.05,0,*6B
1489647755.45,26798,8.75,73160.0,-10.73,-31.33,-30.55,0,*66
1489647756.68,26799,8.75,73142.5,-10.73,-31.29,-30.67,0,*6D
1489647757.91,26800,8.75,73146.3,-10.73,-30.45,-29.73,0,*64
1489647759.17,26801,8.75,73156.8,-10.75,-30.55,-29.79,0,*68
1489647760.43,26802,8.75,73146.3,-10.75,-30.45,-29.89,0,*65
1489647761.67,26803,8.75,73124.8,-10.73,-30.45,-29.73,0,*67
1489647762.88,26804,8.75,73116.8,-10.73,-30.45,-29.79,0,*6A
1489647764.11,26805,8.75,73140.3,-10.73,-30.39,-29.61,0,*69
1489647765.34,26806,8.75,73106.0,-10.73,-30.39,-29.79,0,*63
1489647766.6,26807,8.75,73124.5,-10.73,-30.39,-29.73,0,*68
1489647767.84,26808,8.75,73144.5,-10.73,-30.11,-29.39,0,*63
1489647769.09,26809,8.69,73132.0,-10.73,-30.11,-29.51,0,*6C
1489647770.38,26810,8.69,73136.8,-10.71,-30.17,-29.51,0,*60
1489647771.59,26811,8.69,73124.8,-10.73,-30.23,-29.61,0,*67
1489647772.83,26812,8.75,73128.0,-10.71,-30.23,-29.57,0,*63
1489647774.04,26813,8.75,73134.3,-10.73,-30.11,-29.61,0,*64
1489647775.32,26814,8.75,73140.5,-10.71,-30.01,-29.29,0,*6C
1489647776.61,26815,8.75,73146.0,-10.71,-29.89,-29.13,0,*6C
1489647777.89,26816,8.75,73152.0,-10.73,-29.89,-29.35,0,*69
1489647779.1,26817,8.75,73156.8,-10.73,-29.95,-29.23,0,*62
1489647780.38,26818,8.75,73168.0,-10.71,-29.73,-29.13,0,*64
1489647781.64,26819,8.75,73164.5,-10.71,-29.67,-29.13,0,*60
1489647782.88,26820,8.75,73136.8,-10.69,-29.83,-29.13,0,*69
1489647784.14,26821,8.75,73112.3,-10.69,-29.73,-29.17,0,*63
1489647785.38,26822,8.75,73156.0,-10.69,-29.83,-29.29,0,*62
1489647786.65,26823,8.75,73162.3,-10.69,-29.89,-29.35,0,*64
1489647787.91,26824,8.75,73144.8,-10.67,-29.95,-29.29,0,*6D
1489647789.15,26825,8.75,73134.8,-10.67,-29.83,-29.23,0,*61
1489647790.42,26826,8.75,73122.0,-10.67,-30.11,-29.39,0,*6A
1489647791.66,26827,8.75,73128.8,-10.67,-30.27,-29.45,0,*65
1489647792.9,26828,8.75,73102.8,-10.65,-31.01,-30.17,0,*62
1489647794.14,26829,8.75,73126.3,-10.69,-30.55,-29.83,0,*6A
1489647795.38,26830,8.75,73140.8,-10.69,-30.17,-29.57,0,*6D
1489647796.66,26831,8.75,73134.0,-10.67,-30.01,-29.29,0,*6C
1489647797.91,26832,8.75,73116.0,-10.67,-30.27,-29.45,0,*61
1489647799.15,26833,8.75,73094.5,-10.67,-30.27,-29.61,0,*66
1489647800.39,26834,8.75,73088.8,-10.69,-30.23,-29.51,0,*68
1489647801.67,26835,8.75,73092.0,-10.67,-30.01,-29.29,0,*68
1489647802.94,26836,8.75,73090.3,-10.67,-29.83,-29.29,0,*69
1489647804.2,26837,8.75,73090.5,-10.67,-29.95,-29.29,0,*6F
1489647805.44,26838,8.75,73082.5,-10.67,-29.83,-29.23,0,*6D
1489647806.67,26839,8.75,73094.3,-10.67,-29.79,-29.07,0,*6F
1489647807.97,26840,8.75,73082.0,-10.67,-29.51,-28.79,0,*63
1489647809.21,26841,8.75,73078.3,-10.65,-29.61,-28.91,0,*65
1489647810.46,26842,8.75,73076.8,-10.65,-29.45,-28.63,0,*6D
1489647811.76,26843,8.75,73086.8,-10.63,-29.39,-28.59,0,*68
1489647813.0,26844,8.75,73106.0,-10.65,-29.23,-28.59,0,*62
1489647814.3,26845,8.75,73086.5,-10.63,-29.39,-28.63,0,*67
1489647815.58,26846,8.75,73104.3,-10.59,-29.39,-28.69,0,*67
1489647816.85,26847,8.75,73126.5,-10.59,-29.35,-28.53,0,*63
1489647818.15,26848,8.75,73130.3,-10.59,-29.35,-28.59,0,*66
1489647819.4,26849,8.75,73100.8,-10.57,-29.39,-28.69,0,*66
1489647820.65,26850,8.75,73114.3,-10.57,-29.39,-28.69,0,*6E
1489647821.92,26851,8.75,73100.0,-10.57,-29.35,-28.79,0,*62
1489647823.21,26852,8.75,73102.0,-10.57,-29.35,-28.63,0,*6A
1489647824.47,26853,8.75,73118.5,-10.57,-29.13,-28.47,0,*69
1489647825.75,26854,8.75,73118.3,-10.57,-29.39,-28.63,0,*60
1489647827.05,26855,8.75,73126.3,-10.55,-29.39,-28.79,0,*68
1489647828.32,26856,8.75,73104.8,-10.55,-29.51,-28.69,0,*64
1489647829.59,26857,8.75,73112.3,-10.55,-29.39,-28.69,0,*6B
1489647830.88,26858,8.75,73128.8,-10.55,-29.29,-28.47,0,*69
1489647832.15,26859,8.75,73120.3,-10.53,-29.29,-28.59,0,*61
1489647833.4,26860,8.75,73124.3,-10.53,-29.61,-28.91,0,*63
1489647834.64,26861,8.75,73128.0,-10.55,-29.67,-28.97,0,*64
1489647835.85,26862,8.75,73124.3,-10.53,-29.79,-28.97,0,*6E
1489647837.07,26863,8.75,73130.5,-10.53,-29.67,-28.97,0,*60
1489647838.31,26864,8.75,73132.8,-10.53,-29.83,-29.13,0,*60
1489647839.55,26865,8.75,73144.8,-10.53,-29.83,-29.13,0,*61
1489647840.78,26866,8.75,73148.8,-10.53,-30.01,-29.23,0,*63
1489647842.07,26867,8.75,73144.5,-10.51,-30.01,-29.29,0,*6A
1489647843.33,26868,8.75,73150.8,-10.51,-30.51,-29.83,0,*60
1489647844.6,26869,8.75,73148.3,-10.53,-30.01,-29.35,0,*6B
1489647845.87,26870,8.75,73122.5,-10.53,-30.73,-30.17,0,*6E
1489647847.11,26871,8.75,73116.8,-10.53,-30.17,-29.61,0,*64
1489647848.38,26872,8.75,73114.3,-10.53,-30.73,-30.01,0,*6B
1489647849.63,26873,8.75,73118.3,-10.53,-30.17,-29.45,0,*60
1489647850.9,26874,8.75,73126.0,-10.53,-30.01,-29.35,0,*67
1489647852.14,26875,8.75,73136.0,-10.53,-30.51,-29.83,0,*6E
1489647853.38,26876,8.75,73132.5,-10.53,-30.51,-29.95,0,*6A
1489647854.67,26877,8.75,73128.3,-10.55,-30.61,-29.89,0,*63
1489647855.94,26878,8.75,73128.0,-10.55,-31.29,-30.73,0,*6C
1489647857.25,26879,8.75,73138.3,-10.55,-31.11,-30.61,0,*65
1489647858.51,26880,8.75,73122.8,-10.57,-31.51,-31.11,0,*63
1489647859.79,26881,8.75,73122.8,-10.59,-31.17,-30.61,0,*68
1489647861.03,26882,8.75,73130.8,-10.59,-30.83,-30.27,0,*65
1489647862.33,26883,8.75,73140.5,-10.59,-31.11,-30.51,0,*6F
1489647863.59,26884,8.75,73150.0,-10.59,-30.45,-29.73,0,*60
1489647864.85,26885,8.75,73160.0,-10.59,-30.61,-30.11,0,*6B
1489647866.11,26886,8.75,73158.3,-10.63,-31.05,-30.55,0,*62
1489647867.37,26887,8.75,73110.0,-10.63,-31.17,-30.55,0,*60
1489647868.65,26888,8.75,73114.5,-10.63,-31.23,-30.83,0,*63
1489647869.86,26889,8.75,73130.8,-10.65,-30.45,-29.95,0,*6A
1489647871.1,26890,8.75,73158.3,-10.65,-30.17,-29.61,0,*6E
1489647872.31,26891,8.75,73160.8,-10.65,-30.67,-30.11,0,*67
1489647873.55,26892,8.75,73174.3,-10.65,-31.39,-31.01,0,*6E
1489647874.8,26893,8.75,73166.5,-10.65,-31.33,-30.89,0,*64
1489647876.05,26894,8.75,73138.8,-10.63,-31.05,-30.55,0,*61
1489647877.35,26895,8.75,73166.0,-10.63,-31.23,-30.55,0,*64
1489647878.62,26896,8.75,73164.3,-10.67,-31.33,-30.73,0,*66
1489647879.86,26897,8.75,73162.3,-10.69,-31.57,-31.05,0,*6B
1489647881.1,26898,8.75,73170.0,-10.69,-31.05,-30.39,0,*6D
1489647882.38,26899,8.75,73172.3,-10.69,-31.11,-30.73,0,*67
1489647883.62,26900,8.75,73166.0,-10.69,-31.67,-31.23,0,*63
1489647884.86,26901,8.75,73170.8,-10.69,-31.45,-30.95,0,*6E
1489647886.1,26902,8.75,73158.0,-10.71,-31.67,-31.29,0,*62
1489647887.37,26903,8.75,73170.0,-10.71,-31.29,-30.73,0,*67
1489647888.67,26904,8.75,73164.5,-10.71,-31.39,-30.77,0,*65
1489647889.92,26905,8.75,73152.5,-10.73,-32.01,-31.51,0,*6B
1489647891.17,26906,8.75,73132.3,-10.73,-31.73,-31.17,0,*6C
1489647892.41,26907,8.75,73158.0,-10.73,-31.67,-31.11,0,*6E
1489647893.68,26908,8.75,73130.5,-10.75,-30.95,-30.27,0,*6F
1489647894.93,26909,8.75,73168.3,-10.75,-31.29,-30.67,0,*6C
1489647896.21,26910,8.75,73156.3,-10.73,-31.61,-31.11,0,*6E
1489647897.47,26911,8.75,73132.0,-10.77,-31.73,-31.39,0,*62
1489647898.73,26912,8.75,73114.5,-10.77,-32.07,-31.57,0,*69
1489647899.99,26913,8.75,73124.0,-10.79,-32.23,-31.73,0,*66
1489647901.26,26914,8.75,73100.3,-10.79,-31.79,-31.39,0,*63
1489647902.47,26915,8.75,73118.0,-10.77,-31.05,-30.45,0,*6D
1489647903.71,26916,8.75,73126.8,-10.79,-30.67,-30.11,0,*64
1489647904.97,26917,8.75,73140.8,-10.79,-31.05,-30.51,0,*64
1489647906.22,26918,8.75,73132.5,-10.79,-30.67,-29.83,0,*69
1489647907.51,26919,8.75,73148.0,-10.79,-30.61,-30.01,0,*6C
1489647908.81,26920,8.75,73144.0,-10.79,-31.23,-30.61,0,*67
1489647910.08,26921,8.75,73148.0,-10.79,-30.73,-30.27,0,*60
1489647911.35,26922,8.75,73156.0,-10.79,-31.23,-30.83,0,*69
1489647912.62,26923,8.75,73170.5,-10.79,-31.05,-30.73,0,*63
1489647913.89,26924,8.75,73146.0,-10.79,-31.05,-30.51,0,*64
1489647915.15,26925,8.75,73082.8,-10.79,-31.01,-30.51,0,*61
1489647916.39,26926,8.75,73072.5,-10.81,-30.89,-30.23,0,*61
1489647917.66,26927,8.75,73122.8,-10.79,-30.17,-29.67,0,*68
1489647918.92,26928,8.75,73170.3,-10.79,-30.01,-29.57,0,*63
1489647920.19,26929,8.75,73166.3,-10.79,-30.83,-30.51,0,*66
1489647921.46,26930,8.75,73134.8,-10.79,-31.39,-31.05,0,*6E
1489647922.72,26931,8.75,73132.0,-10.79,-30.89,-30.45,0,*60
1489647923.97,26932,8.75,73128.3,-10.79,-30.67,-30.27,0,*67
1489647925.21,26933,8.75,73108.3,-10.81,-31.39,-31.05,0,*6A
1489647926.5,26934,8.75,73106.3,-10.83,-31.23,-30.55,0,*60
1489647927.75,26935,8.75,73112.8,-10.83,-31.29,-30.67,0,*6A
1489647929.03,26936,8.75,73130.5,-10.81,-31.61,-31.23,0,*66
1489647930.28,26937,8.75,73108.3,-10.81,-31.73,-31.29,0,*6E
1489647931.57,26938,8.75,73084.3,-10.87,-31.61,-30.95,0,*62
1489647932.83,26939,8.75,73054.5,-10.83,-30.73,-30.23,0,*68
1489647934.1,26940,8.75,73094.0,-10.87,-30.77,-30.23,0,*66
1489647935.37,26941,8.75,73118.3,-10.83,-30.77,-30.23,0,*63
1489647936.63,26942,8.75,73130.5,-10.81,-30.73,-30.05,0,*62
1489647937.91,26943,8.75,73134.3,-10.83,-31.11,-30.67,0,*60
1489647939.19,26944,8.75,73072.5,-10.83,-31.45,-30.89,0,*66
1489647940.45,26945,8.75,73104.0,-10.83,-30.89,-30.23,0,*66
1489647941.74,26946,8.75,73120.5,-10.83,-30.55,-30.01,0,*64
1489647943.02,26947,8.75,73096.0,-10.83,-30.67,-30.17,0,*63
1489647944.28,26948,8.75,73106.0,-10.83,-30.51,-29.83,0,*6C
1489647945.54,26949,8.75,73122.0,-10.87,-30.55,-29.95,0,*6A
1489647946.82,26950,8.75,73150.5,-10.83,-30.39,-29.73,0,*64
1489647948.1,26951,8.75,73158.0,-10.83,-30.39,-29.73,0,*65
1489647949.38,26952,8.75,73152.5,-10.83,-30.39,-29.73,0,*66
1489647950.65,26953,8.75,73134.5,-10.81,-30.73,-30.17,0,*61
1489647951.92,26954,8.75,73136.3,-10.81,-30.55,-29.89,0,*6D
1489647953.22,26955,8.75,73156.8,-10.83,-30.77,-30.17,0,*61
1489647954.47,26956,8.75,73144.8,-10.83,-31.29,-30.67,0,*6F
1489647955.74,26957,8.75,73100.3,-10.83,-31.57,-31.29,0,*6C
1489647957.03,26958,8.75,73088.8,-10.87,-32.19,-31.85,0,*68
1489647958.32,26959,8.75,73078.0,-10.87,-32.19,-31.61,0,*63
1489647959.57,26960,8.75,73092.0,-10.87,-30.83,-30.27,0,*6B
1489647960.86,26961,8.75,73108.8,-10.87,-30.73,-30.05,0,*65
1489647962.11,26962,8.75,73126.0,-10.87,-30.55,-29.95,0,*63
1489647963.4,26963,8.75,73152.0,-10.83,-30.51,-29.89,0,*6F
1489647964.66,26964,8.75,73166.8,-10.87,-30.45,-29.73,0,*6C
1489647965.93,26965,8.75,73172.5,-10.87,-30.27,-29.73,0,*69
1489647967.17,26966,8.75,73168.5,-10.87,-30.23,-29.67,0,*6B
1489647968.43,26967,8.75,73134.8,-10.83,-30.39,-29.83,0,*6F
1489647969.72,26968,8.75,73164.8,-10.83,-30.51,-30.05,0,*68
1489647970.95,26969,8.75,73162.8,-10.87,-30.45,-29.95,0,*69
1489647972.23,26970,8.75,73140.3,-10.83,-30.39,-29.73,0,*66
1489647973.47,26971,8.75,73138.5,-10.83,-30.33,-29.83,0,*62
1489647974.76,26972,8.75,73082.0,-10.83,-30.89,-30.39,0,*69
1489647976.05,26973,8.75,73054.3,-10.83,-30.73,-30.05,0,*62
1489647977.29,26974,8.75,73116.8,-10.81,-30.51,-29.95,0,*66
1489647978.56,26975,8.75,73158.0,-10.81,-30.73,-30.17,0,*65
1489647979.83,26976,8.75,73148.3,-10.81,-30.51,-29.89,0,*69
1489647981.09,26977,8.75,73104.8,-10.81,-30.39,-29.73,0,*63
1489647982.35,26978,8.75,73148.8,-10.83,-30.39,-29.83,0,*61
1489647983.58,26979,8.75,73162.0,-10.83,-30.23,-29.61,0,*67
1489647984.8,26980,8.75,73172.5,-10.81,-30.23,-29.67,0,*65
1489647986.07,26981,8.75,73164.3,-10.81,-30.05,-29.51,0,*65
1489647987.31,26982,8.75,73176.3,-10.81,-30.01,-29.45,0,*67
1489647988.56,26983,8.75,73190.3,-10.81,-30.01,-29.29,0,*6C
1489647989.83,26984,8.75,73192.5,-10.79,-29.83,-29.29,0,*6E
1489647991.09,26985,8.75,73192.3,-10.79,-29.95,-29.29,0,*68
1489647992.37,26986,8.75,73184.3,-10.79,-30.01,-29.39,0,*6F
1489647993.62,26987,8.75,73178.5,-10.79,-29.95,-29.45,0,*60
1489647994.85,26988,8.75,73178.5,-10.77,-30.01,-29.45,0,*64
1489647996.09,26989,8.75,73178.5,-10.77,-29.83,-29.29,0,*6D
1489647997.36,26990,8.75,73178.8,-10.75,-29.95,-29.35,0,*6D
1489647998.6,26991,8.75,73160.5,-10.75,-30.23,-29.57,0,*6D
1489647999.81,26992,8.75,73170.3,-10.77,-30.27,-29.61,0,*6D
1489648001.05,26993,8.75,73176.0,-10.77,-30.17,-29.67,0,*69
1489648002.29,26994,8.75,73180.3,-10.75,-30.11,-29.57,0,*69
1489648003.53,26995,8.75,73178.5,-10.75,-30.23,-29.79,0,*65
1489648004.81,26996,8.75,73178.0,-10.75,-30.61,-30.05,0,*63
1489648006.05,26997,8.75,73182.0,-10.75,-30.45,-29.95,0,*65
1489648007.31,26998,8.75,73176.8,-10.75,-30.61,-29.95,0,*6C
1489648008.58,26999,8.75,73170.0,-10.77,-30.73,-30.17,0,*6E
1489648009.84,27000,8.75,73170.5,-10.75,-30.61,-29.95,0,*65
1489648011.08,27001,8.75,73164.0,-10.75,-30.27,-29.61,0,*6D
1489648012.33,27002,8.75,73180.5,-10.75,-30.27,-29.61,0,*6E
1489648013.57,27003,8.75,73172.0,-10.75,-30.23,-29.57,0,*6E
1489648014.79,27004,8.75,73196.8,-10.73,-31.17,-30.67,0,*62
1489648016.01,27005,8.75,73188.5,-10.73,-31.67,-31.29,0,*6F
1489648017.26,27006,8.75,73166.8,-10.75,-30.83,-30.27,0,*6E
1489648018.46,27007,8.75,73156.0,-10.77,-30.45,-29.83,0,*61
1489648019.73,27008,8.75,73160.5,-10.75,-30.11,-29.51,0,*62
1489648020.97,27009,8.75,73168.8,-10.75,-30.23,-29.57,0,*64
1489648022.22,27010,8.75,73186.0,-10.73,-30.23,-29.51,0,*6C
1489648023.45,27011,8.75,73202.0,-10.73,-30.55,-29.95,0,*64
1489648024.72,27012,8.75,73176.5,-10.73,-31.11,-30.55,0,*62
1489648025.97,27013,8.75,73168.0,-10.73,-31.51,-31.17,0,*60
1489648027.22,27014,8.75,73178.5,-10.73,-31.85,-31.17,0,*6E
1489648028.49,27015,8.75,73150.0,-10.75,-31.73,-31.17,0,*60
1489648029.74,27016,8.75,73150.5,-10.75,-30.83,-30.27,0,*6F
1489648031.02,27017,8.75,73156.8,-10.75,-31.33,-30.77,0,*61
1489648032.25,27018,8.75,73164.5,-10.77,-30.77,-30.11,0,*6D
1489648033.5,27019,8.75,73154.5,-10.77,-31.23,-30.83,0,*67
1489648034.77,27020,8.75,73120.8,-10.77,-31.39,-30.89,0,*6C
1489648036.0,27021,8.75,73124.3,-10.77,-31.57,-31.05,0,*60
1489648037.21,27022,8.75,73152.3,-10.77,-31.01,-30.27,0,*61
1489648038.48,27023,8.75,73148.0,-10.77,-30.73,-30.17,0,*67
1489648039.71,27024,8.75,73174.5,-10.77,-30.89,-30.27,0,*66
1489648040.97,27025,8.75,73184.0,-10.77,-30.61,-30.01,0,*65
1489648042.21,27026,8.75,73138.3,-10.77,-31.51,-31.05,0,*61
1489648043.48,27027,8.75,73154.0,-10.77,-31.51,-30.89,0,*65
1489648044.72,27028,8.75,73152.8,-10.77,-31.33,-30.73,0,*6B
1489648045.99,27029,8.75,73168.5,-10.79,-31.33,-30.73,0,*64
1489648047.25,27030,8.75,73124.0,-10.81,-31.29,-30.77,0,*64
1489648048.49,27031,8.75,73110.0,-10.81,-32.01,-31.57,0,*6F
1489648049.76,27032,8.75,73150.5,-10.79,-30.83,-30.17,0,*66
1489648051.0,27033,8.75,73154.0,-10.79,-30.45,-29.83,0,*68
1489648052.2,27034,8.75,73160.3,-10.77,-30.45,-29.79,0,*64
1489648053.4,27035,8.75,73170.3,-10.77,-30.33,-29.79,0,*64
1489648054.62,27036,8.75,73166.8,-10.77,-30.27,-29.67,0,*6D
1489648055.83,27037,8.75,73162.8,-10.77,-30.27,-29.67,0,*6C
1489648057.07,27038,8.75,73162.8,-10.75,-30.27,-29.79,0,*6E
1489648058.31,27039,8.75,73162.8,-10.75,-30.27,-29.79,0,*6F
1489648059.6,27040,8.75,73152.0,-10.75,-30.55,-29.89,0,*6B
1489648060.89,27041,8.75,73158.8,-10.75,-30.55,-29.89,0,*6A
1489648062.13,27042,8.75,73160.0,-10.75,-30.27,-29.61,0,*6A
1489648063.37,27043,8.75,73170.8,-10.75,-30.11,-29.61,0,*6E
1489648064.62,27044,8.75,73176.8,-10.73,-30.11,-29.51,0,*6C
1489648065.84,27045,8.75,73180.8,-10.73,-30.11,-29.57,0,*6B
1489648067.08,27046,8.75,73174.5,-10.73,-30.27,-29.73,0,*6B
1489648068.35,27047,8.75,73162.3,-10.73,-30.95,-30.39,0,*65
1489648069.59,27048,8.69,73148.5,-10.73,-31.01,-30.55,0,*6C
1489648070.88,27049,8.75,73132.5,-10.71,-31.95,-31.57,0,*61
1489648072.13,27050,8.75,73146.5,-10.73,-31.91,-31.45,0,*6C
1489648073.4,27051,8.75,73166.8,-10.75,-31.91,-31.45,0,*6B
1489648074.64,27052,8.69,73144.0,-10.77,-32.63,-32.23,0,*67
1489648075.88,27053,8.75,73162.3,-10.75,-31.67,-31.17,0,*67
1489648077.15,27054,8.75,73170.8,-10.77,-31.51,-30.89,0,*61
1489648078.38,27055,8.75,73178.5,-10.77,-31.39,-31.01,0,*6F
1489648079.66,27056,8.75,73176.8,-10.75,-31.29,-30.77,0,*6F
1489648080.9,27057,8.69,73176.0,-10.77,-31.39,-30.83,0,*66
1489648082.14,27058,8.75,73172.5,-10.77,-32.13,-31.73,0,*6C
1489648083.34,27059,8.69,73174.8,-10.77,-31.67,-31.05,0,*6C
1489648084.58,27060,8.75,73166.5,-10.77,-31.17,-30.51,0,*61
1489648085.82,27061,8.69,73148.3,-10.77,-30.89,-30.33,0,*62
1489648087.04,27062,8.75,73156.8,-10.77,-31.33,-30.83,0,*6A
1489648088.3,27063,8.69,73160.5,-10.77,-31.91,-31.39,0,*63
1489648089.56,27064,8.75,73162.8,-10.81,-32.29,-31.85,0,*6A
1489648090.85,27065,8.75,73152.5,-10.79,-32.07,-31.57,0,*6F
1489648092.1,27066,8.75,73154.5,-10.77,-31.33,-30.73,0,*61
1489648093.37,27067,8.75,73152.3,-10.81,-31.39,-30.77,0,*67
1489648094.64,27068,8.75,73144.3,-10.79,-30.89,-30.27,0,*60
1489648095.91,27069,8.75,73138.8,-10.81,-31.23,-30.55,0,*62
1489648097.18,27070,8.69,73142.8,-10.79,-30.89,-30.27,0,*69
1489648098.42,27071,8.75,73132.8,-10.77,-30.83,-30.17,0,*6F
1489648099.66,27072,8.69,73142.8,-10.75,-30.83,-30.23,0,*69
1489648100.9,27073,8.69,73142.0,-10.77,-30.89,-30.27,0,*64
1489648102.11,27074,8.75,73152.3,-10.77,-31.05,-30.45,0,*62